Weather History for Harrisburg, PA

Change the Weather History Date:

Thursday, January 3, 2013

  Actual Average Record
Temperature  
Mean Temperature 28 °F -  
Max Temperature 34 °F 38 °F 60 °F (1950)
Min Temperature 21 °F 25 °F 4 °F (1918)
Degree Days  
Heating Degree Days 38    
Moisture  
Dew Point 16 °F    
Average Humidity 62    
Maximum Humidity 75    
Minimum Humidity 50    
Precipitation  
Precipitation 0.00 in - - ()
Sea Level Pressure  
Sea Level Pressure 30.19 in    
Wind  
Wind Speed 5 mph (West)    
Max Wind Speed 10 mph    
Max Gust Speed -    
Visibility 10 miles    
Events      
Averages and records for this station are not official NWS values.
T = Trace of Precipitation, MM = Missing Value Source: NWS Daily Summary

Daily Weather History Graph

Daily Weather History Graph

Search for Another Location

Airport:

Trip Planner

Search our weather history database for the weather conditions in past years. The results will help you decide how hot, cold, wet, or windy it might be!

Date:

Astronomy

Jan. 03, 2013 Rise Set
Actual Time 7:30 AM EST 4:54 PM EST
Civil Twilight 6:59 AM EST 5:24 PM EST
Nautical Twilight 6:25 AM EST 5:58 PM EST
Astronomical Twilight 5:52 AM EST 6:31 PM EST
Moon 11:28 PM EST (1/3) 10:40 AM EST (1/3)
Length of Visible Light 10h 25m
Length of Day
9h 24m
Waning Gibbous, 65% of the Moon is Illuminated
Jan 3
Waning Gibbous
Jan 4
Last Quarter
Jan 11
New
Jan 18
First Quarter
Jan 26
Full

Hourly Weather History & Observations

Time (EST) Temp. Windchill Dew Point Humidity Pressure Visibility Wind Dir Wind Speed Gust Speed Precip Events Conditions
12:56 AM 25.0 °F 19.3 °F 15.1 °F 66% 30.24 in 10.0 mi West 4.6 mph - N/A   Clear
1:56 AM 25.0 °F 17.1 °F 15.1 °F 66% 30.23 in 10.0 mi WNW 6.9 mph - N/A   Clear
2:56 AM 24.1 °F 18.2 °F 12.9 °F 62% 30.24 in 10.0 mi West 4.6 mph - N/A   Clear
3:56 AM 21.9 °F 17.2 °F 15.1 °F 75% 30.24 in 10.0 mi WNW 3.5 mph - N/A   Clear
4:56 AM 21.9 °F 17.2 °F 15.1 °F 75% 30.22 in 10.0 mi West 3.5 mph - N/A   Clear
5:56 AM 21.0 °F 16.2 °F 14.0 °F 74% 30.24 in 10.0 mi West 3.5 mph - N/A   Clear
6:56 AM 21.0 °F 14.6 °F 14.0 °F 74% 30.23 in 10.0 mi WSW 4.6 mph - N/A   Clear
8:56 AM 24.1 °F 16.0 °F 14.0 °F 65% 30.25 in 10.0 mi West 6.9 mph - N/A   Clear
9:56 AM 27.0 °F 21.6 °F 12.9 °F 56% 30.25 in 10.0 mi NW 4.6 mph - N/A   Clear
10:56 AM 27.0 °F 19.5 °F 12.9 °F 56% 30.24 in 10.0 mi WSW 6.9 mph - N/A   Clear
11:56 AM 30.0 °F 21.1 °F 16.0 °F 56% 30.20 in 10.0 mi WNW 10.4 mph - N/A   Clear
12:56 PM 32.0 °F 26.4 °F 16.0 °F 52% 30.17 in 10.0 mi Variable 5.8 mph - N/A   Clear
1:56 PM 33.1 °F 26.1 °F 17.1 °F 52% 30.14 in 10.0 mi WSW 8.1 mph - N/A   Clear
2:56 PM 33.1 °F 26.9 °F 17.1 °F 52% 30.14 in 10.0 mi SW 6.9 mph - N/A   Clear
3:56 PM 34.0 °F 28.8 °F 17.1 °F 50% 30.14 in 10.0 mi West 5.8 mph - N/A   Clear
4:56 PM 32.0 °F - 18.0 °F 56% 30.14 in 10.0 mi Calm Calm - N/A   Clear
5:56 PM 28.9 °F - 18.0 °F 64% 30.15 in 8.0 mi Calm Calm - N/A   Clear
6:56 PM 28.9 °F 25.2 °F 18.0 °F 64% 30.16 in 10.0 mi West 3.5 mph - N/A   Mostly Cloudy
7:56 PM 28.9 °F 25.2 °F 18.0 °F 64% 30.16 in 10.0 mi WSW 3.5 mph - N/A   Partly Cloudy
8:56 PM 28.9 °F 23.9 °F 18.0 °F 64% 30.14 in 10.0 mi SSW 4.6 mph - N/A   Overcast
9:56 PM 30.9 °F 24.3 °F 19.0 °F 61% 30.15 in 10.0 mi WSW 6.9 mph - N/A   Overcast
10:56 PM 30.9 °F 25.2 °F 19.9 °F 64% 30.16 in 10.0 mi West 5.8 mph - N/A   Overcast
11:56 PM 32.0 °F 26.4 °F 19.9 °F 61% 30.15 in 10.0 mi West 5.8 mph - N/A   Overcast